Location: Burbank
(38.7788°N, 114.0429°W)
Time: 10:47:11
(UTC+00:00)

Courier 1B Rocket - Pass Details

Date: 10 May 2026
Orbit: 920 x 1201 km, 28.2° (Epoch: 10 June)

Event Time Altitude Azimuth Distance (km) Brightness Sun altitude
Rises 21:43:00 0° 261° (W) 3,810 8.6 54.8°
Reaches altitude 10° 21:46:12 10° 248° (WSW) 2,904 8.3 54.2°
Maximum altitude 21:51:44 24° 197° (SSW) 2,112 7.6 53.2°
Drops below altitude 10° 21:57:31 10° 147° (SSE) 3,050 7.6 52.2°
Sets 22:00:59 0° 134° (SE) 4,043 8.1 51.6°
